Time,TemperatureF,DewpointF,PressureIn,WindDirection,WindDirectionDegrees,WindSpeedMPH,WindSpeedGustMPH,Humidity,HourlyPrecipIn,Conditions,Clouds,dailyrainin,SoftwareType,DateUTC
2013-05-22 00:14:00,59.5,54.0,29.67,SSW,209,3.0,9.0,82,0.00,,,0.00,weatherlink.com 1.10,2013-05-22 05:14:00,
2013-05-22 00:29:00,59.4,54.0,29.67,WSW,254,1.0,8.0,83,0.00,,,0.00,weatherlink.com 1.10,2013-05-22 05:29:00,
2013-05-22 00:44:00,59.2,55.0,29.66,WSW,252,1.0,5.0,85,0.00,,,0.00,weatherlink.com 1.10,2013-05-22 05:44:00,
2013-05-22 00:59:00,59.1,55.0,29.66,SW,234,4.0,6.0,85,0.00,,,0.00,weatherlink.com 1.10,2013-05-22 05:59:00,
2013-05-22 01:14:00,59.0,55.0,29.66,WSW,258,2.0,6.0,86,0.00,,,0.00,weatherlink.com 1.10,2013-05-22 06:14:00,
2013-05-22 01:29:00,59.0,55.0,29.67,SW,216,0.0,7.0,86,0.00,,,0.00,weatherlink.com 1.10,2013-05-22 06:29:00,
2013-05-22 01:44:00,59.0,55.0,29.67,SSW,211,1.0,4.0,87,0.00,,,0.00,weatherlink.com 1.10,2013-05-22 06:44:00,
2013-05-22 01:59:00,59.0,55.0,29.67,SSW,201,3.0,7.0,87,0.00,,,0.00,weatherlink.com 1.10,2013-05-22 06:59:00,
2013-05-22 02:14:00,59.0,55.0,29.68,SW,221,1.0,5.0,87,0.00,,,0.00,weatherlink.com 1.10,2013-05-22 07:14:00,
2013-05-22 02:29:00,58.7,55.0,29.68,West,261,4.0,9.0,87,0.00,,,0.00,weatherlink.com 1.10,2013-05-22 07:29:00,
2013-05-22 02:45:00,58.4,55.0,29.68,SW,231,6.0,10.0,87,0.00,,,0.00,weatherlink.com 1.10,2013-05-22 07:45:00,
2013-05-22 03:00:00,58.0,54.0,29.68,WSW,256,7.0,9.0,87,0.00,,,0.00,weatherlink.com 1.10,2013-05-22 08:00:00,
2013-05-22 03:15:00,57.7,55.0,29.68,West,273,2.0,8.0,89,0.00,,,0.00,weatherlink.com 1.10,2013-05-22 08:15:00,
2013-05-22 03:30:00,57.7,54.0,29.68,WSW,242,5.0,7.0,88,0.00,,,0.00,weatherlink.com 1.10,2013-05-22 08:30:00,
2013-05-22 03:45:00,57.5,54.0,29.68,WSW,257,7.0,9.0,87,0.00,,,0.00,weatherlink.com 1.10,2013-05-22 08:45:00,
2013-05-22 04:00:00,57.3,54.0,29.68,WSW,256,1.0,4.0,88,0.00,,,0.00,weatherlink.com 1.10,2013-05-22 09:00:00,
2013-05-22 04:15:00,57.3,54.0,29.68,West,277,5.0,8.0,88,0.00,,,0.00,weatherlink.com 1.10,2013-05-22 09:15:00,
2013-05-22 04:30:00,57.1,54.0,29.68,WSW,248,5.0,8.0,88,0.00,,,0.00,weatherlink.com 1.10,2013-05-22 09:30:00,
2013-05-22 04:45:00,57.0,54.0,29.67,WSW,257,2.0,9.0,88,0.00,,,0.00,weatherlink.com 1.10,2013-05-22 09:45:00,
2013-05-22 05:00:00,56.8,53.0,29.67,WSW,252,6.0,8.0,88,0.00,,,0.00,weatherlink.com 1.10,2013-05-22 10:00:00,
2013-05-22 05:15:00,56.5,53.0,29.67,WSW,239,5.0,8.0,89,0.00,,,0.00,weatherlink.com 1.10,2013-05-22 10:15:00,
2013-05-22 05:30:00,56.3,53.0,29.67,SW,236,5.0,8.0,88,0.00,,,0.00,weatherlink.com 1.10,2013-05-22 10:30:00,
2013-05-22 05:45:00,56.0,53.0,29.67,West,271,2.0,11.0,89,0.00,,,0.00,weatherlink.com 1.10,2013-05-22 10:45:00,
2013-05-22 06:00:00,55.9,53.0,29.67,West,279,9.0,9.0,89,0.00,,,0.00,weatherlink.com 1.10,2013-05-22 11:00:00,
2013-05-22 06:15:00,55.8,53.0,29.67,West,279,4.0,11.0,89,0.00,,,0.00,weatherlink.com 1.10,2013-05-22 11:15:00,
2013-05-22 06:30:00,55.5,53.0,29.67,WSW,250,7.0,11.0,90,0.00,,,0.00,weatherlink.com 1.10,2013-05-22 11:30:00,
2013-05-22 06:45:00,55.3,53.0,29.67,WSW,242,1.0,7.0,91,0.00,,,0.00,weatherlink.com 1.10,2013-05-22 11:45:00,
2013-05-22 07:00:00,55.1,53.0,29.67,West,269,2.0,9.0,91,0.00,,,0.00,weatherlink.com 1.10,2013-05-22 12:00:00,
2013-05-22 07:15:00,55.0,53.0,29.68,WSW,248,4.0,8.0,92,0.00,,,0.00,weatherlink.com 1.10,2013-05-22 12:15:00,
2013-05-22 07:30:00,55.0,53.0,29.68,West,271,3.0,7.0,93,0.00,,,0.00,weatherlink.com 1.10,2013-05-22 12:30:00,
2013-05-22 07:45:00,55.1,54.0,29.68,WSW,253,3.0,8.0,94,0.00,,,0.00,weatherlink.com 1.10,2013-05-22 12:45:00,
2013-05-22 08:00:00,55.4,54.0,29.68,WSW,251,4.0,7.0,94,0.00,,,0.00,weatherlink.com 1.10,2013-05-22 13:00:00,
2013-05-22 08:15:00,55.9,54.0,29.68,WNW,295,3.0,7.0,94,0.01,,,0.01,weatherlink.com 1.10,2013-05-22 13:15:00,
2013-05-22 08:30:00,56.6,55.0,29.68,SW,226,4.0,8.0,93,0.01,,,0.01,weatherlink.com 1.10,2013-05-22 13:30:00,
2013-05-22 08:45:00,57.1,55.0,29.68,WSW,246,2.0,8.0,92,0.01,,,0.01,weatherlink.com 1.10,2013-05-22 13:45:00,
2013-05-22 09:00:00,58.1,56.0,29.69,West,279,5.0,8.0,91,0.01,,,0.01,weatherlink.com 1.10,2013-05-22 14:00:00,
2013-05-22 09:15:00,58.7,56.0,29.69,SW,226,4.0,12.0,89,0.00,,,0.01,weatherlink.com 1.10,2013-05-22 14:15:00,
2013-05-22 09:30:00,59.1,55.0,29.69,WNW,292,5.0,12.0,87,0.00,,,0.01,weatherlink.com 1.10,2013-05-22 14:30:00,
2013-05-22 09:45:00,59.8,55.0,29.69,WSW,252,6.0,9.0,85,0.00,,,0.01,weatherlink.com 1.10,2013-05-22 14:45:00,
2013-05-22 10:00:00,60.4,56.0,29.70,West,281,4.0,9.0,84,0.00,,,0.01,weatherlink.com 1.10,2013-05-22 15:00:00,
2013-05-22 10:15:00,60.9,55.0,29.70,West,279,4.0,14.0,82,0.00,,,0.01,weatherlink.com 1.10,2013-05-22 15:15:00,
2013-05-22 10:30:00,60.9,55.0,29.70,West,271,6.0,10.0,82,0.00,,,0.01,weatherlink.com 1.10,2013-05-22 15:30:00,
2013-05-22 10:45:00,60.9,56.0,29.70,SW,232,4.0,9.0,83,0.00,,,0.01,weatherlink.com 1.10,2013-05-22 15:45:00,
2013-05-22 11:00:00,60.9,56.0,29.70,WNW,288,2.0,14.0,83,0.00,,,0.01,weatherlink.com 1.10,2013-05-22 16:00:00,
2013-05-22 11:15:00,62.0,56.0,29.71,SW,228,10.0,11.0,80,0.00,,,0.01,weatherlink.com 1.10,2013-05-22 16:15:00,
2013-05-22 11:30:00,61.9,56.0,29.71,SW,229,7.0,12.0,80,0.00,,,0.01,weatherlink.com 1.10,2013-05-22 16:30:00,
2013-05-22 11:45:00,61.2,56.0,29.72,West,273,8.0,13.0,82,0.00,,,0.01,weatherlink.com 1.10,2013-05-22 16:45:00,
2013-05-22 12:00:00,60.8,56.0,29.72,NW,317,12.0,14.0,84,0.00,,,0.01,weatherlink.com 1.10,2013-05-22 17:00:00,
2013-05-22 12:15:00,61.4,57.0,29.72,NW,306,9.0,15.0,84,0.00,,,0.01,weatherlink.com 1.10,2013-05-22 17:15:00,
2013-05-22 12:30:00,62.8,57.0,29.72,WNW,303,12.0,16.0,80,0.00,,,0.01,weatherlink.com 1.10,2013-05-22 17:30:00,
2013-05-22 12:45:00,63.1,57.0,29.73,WSW,252,6.0,18.0,81,0.00,,,0.01,weatherlink.com 1.10,2013-05-22 17:45:00,
2013-05-22 13:01:00,62.6,56.0,29.73,NW,307,13.0,17.0,80,0.00,,,0.01,weatherlink.com 1.10,2013-05-22 18:01:00,
2013-05-22 13:16:00,61.8,56.0,29.74,NW,310,15.0,17.0,82,0.00,,,0.01,weatherlink.com 1.10,2013-05-22 18:16:00,
2013-05-22 13:31:00,62.0,56.0,29.74,WNW,303,10.0,17.0,82,0.00,,,0.01,weatherlink.com 1.10,2013-05-22 18:31:00,
2013-05-22 13:46:00,61.9,56.0,29.74,WNW,285,11.0,19.0,81,0.00,,,0.01,weatherlink.com 1.10,2013-05-22 18:46:00,
2013-05-22 14:02:00,61.2,55.0,29.75,NW,306,11.0,19.0,81,0.00,,,0.01,weatherlink.com 1.10,2013-05-22 19:02:00,
2013-05-22 14:16:00,60.8,55.0,29.75,WNW,284,12.0,16.0,82,0.00,,,0.01,weatherlink.com 1.10,2013-05-22 19:16:00,
2013-05-22 14:31:00,61.0,54.0,29.75,West,277,9.0,15.0,79,0.00,,,0.01,weatherlink.com 1.10,2013-05-22 19:31:00,
2013-05-22 14:46:00,60.8,55.0,29.76,WNW,291,7.0,18.0,80,0.00,,,0.01,weatherlink.com 1.10,2013-05-22 19:46:00,
2013-05-22 15:01:00,60.5,54.0,29.76,West,279,16.0,17.0,80,0.00,,,0.01,weatherlink.com 1.10,2013-05-22 20:01:00,
2013-05-22 15:16:00,60.1,54.0,29.77,NW,307,15.0,16.0,79,0.00,,,0.01,weatherlink.com 1.10,2013-05-22 20:16:00,
2013-05-22 15:31:00,60.0,53.0,29.77,WNW,283,13.0,18.0,79,0.00,,,0.01,weatherlink.com 1.10,2013-05-22 20:31:00,
2013-05-22 15:46:00,60.1,54.0,29.77,NW,305,13.0,19.0,79,0.00,,,0.01,weatherlink.com 1.10,2013-05-22 20:46:00,
2013-05-22 16:01:00,59.9,53.0,29.77,NW,323,10.0,19.0,78,0.00,,,0.01,weatherlink.com 1.10,2013-05-22 21:01:00,
2013-05-22 16:16:00,59.6,53.0,29.78,WNW,298,10.0,17.0,78,0.00,,,0.01,weatherlink.com 1.10,2013-05-22 21:16:00,
2013-05-22 16:31:00,59.4,53.0,29.78,WNW,283,12.0,18.0,78,0.00,,,0.01,weatherlink.com 1.10,2013-05-22 21:31:00,
2013-05-22 16:46:00,59.0,53.0,29.79,WNW,290,8.0,19.0,79,0.00,,,0.01,weatherlink.com 1.10,2013-05-22 21:46:00,
2013-05-22 17:01:00,59.1,52.0,29.79,West,261,7.0,18.0,77,0.00,,,0.01,weatherlink.com 1.10,2013-05-22 22:01:00,
2013-05-22 17:16:00,58.6,51.0,29.80,West,277,12.0,16.0,77,0.00,,,0.01,weatherlink.com 1.10,2013-05-22 22:16:00,
2013-05-22 17:31:00,58.4,52.0,29.80,WNW,300,9.0,18.0,79,0.00,,,0.01,weatherlink.com 1.10,2013-05-22 22:31:00,
2013-05-22 17:46:00,58.7,52.0,29.80,NW,313,10.0,15.0,78,0.00,,,0.01,weatherlink.com 1.10,2013-05-22 22:46:00,
2013-05-22 18:01:00,58.2,51.0,29.81,WNW,284,10.0,17.0,78,0.00,,,0.01,weatherlink.com 1.10,2013-05-22 23:01:00,
2013-05-22 18:16:00,58.5,52.0,29.81,WNW,298,9.0,15.0,78,0.00,,,0.01,weatherlink.com 1.10,2013-05-22 23:16:00,
2013-05-22 18:31:00,58.1,51.0,29.81,NW,314,12.0,17.0,78,0.00,,,0.01,weatherlink.com 1.10,2013-05-22 23:31:00,
2013-05-22 18:46:00,58.0,51.0,29.82,WNW,284,9.0,15.0,78,0.00,,,0.01,weatherlink.com 1.10,2013-05-22 23:46:00,
2013-05-22 19:01:00,57.7,51.0,29.82,WNW,296,12.0,16.0,77,0.00,,,0.01,weatherlink.com 1.10,2013-05-23 00:01:00,
2013-05-22 19:16:00,57.7,51.0,29.83,WNW,294,9.0,14.0,77,0.00,,,0.01,weatherlink.com 1.10,2013-05-23 00:16:00,
2013-05-22 19:31:00,57.4,51.0,29.84,WNW,291,8.0,13.0,79,0.00,,,0.01,weatherlink.com 1.10,2013-05-23 00:31:00,
2013-05-22 19:46:00,57.0,51.0,29.84,WNW,300,11.0,14.0,80,0.00,,,0.01,weatherlink.com 1.10,2013-05-23 00:46:00,
2013-05-22 20:01:00,56.1,51.0,29.85,NW,304,6.0,13.0,84,0.00,,,0.01,weatherlink.com 1.10,2013-05-23 01:01:00,
2013-05-22 20:16:00,56.0,51.0,29.85,WNW,289,8.0,14.0,82,0.00,,,0.01,weatherlink.com 1.10,2013-05-23 01:16:00,
2013-05-22 20:31:00,55.9,51.0,29.85,West,276,8.0,11.0,83,0.00,,,0.01,weatherlink.com 1.10,2013-05-23 01:31:00,
2013-05-22 20:46:00,55.8,51.0,29.86,WNW,288,6.0,14.0,83,0.00,,,0.01,weatherlink.com 1.10,2013-05-23 01:46:00,
2013-05-22 21:01:00,55.6,51.0,29.86,WNW,300,11.0,13.0,85,0.00,,,0.01,weatherlink.com 1.10,2013-05-23 02:01:00,
2013-05-22 21:16:00,55.5,51.0,29.87,WNW,296,11.0,12.0,85,0.00,,,0.01,weatherlink.com 1.10,2013-05-23 02:16:00,
2013-05-22 21:31:00,55.4,51.0,29.87,WNW,289,7.0,12.0,85,0.00,,,0.01,weatherlink.com 1.10,2013-05-23 02:31:00,
2013-05-22 21:46:00,55.3,51.0,29.88,West,262,10.0,12.0,86,0.00,,,0.01,weatherlink.com 1.10,2013-05-23 02:46:00,
2013-05-22 22:02:00,55.3,51.0,29.89,WNW,286,6.0,11.0,86,0.00,,,0.01,weatherlink.com 1.10,2013-05-23 03:02:00,
2013-05-22 22:17:00,54.8,51.0,29.89,WNW,288,8.0,12.0,88,0.00,,,0.01,weatherlink.com 1.10,2013-05-23 03:17:00,
2013-05-22 22:32:00,54.3,52.0,29.90,WNW,294,8.0,14.0,91,0.00,,,0.01,weatherlink.com 1.10,2013-05-23 03:32:00,
2013-05-22 22:47:00,53.9,52.0,29.90,WNW,284,8.0,11.0,92,0.00,,,0.01,weatherlink.com 1.10,2013-05-23 03:47:00,
2013-05-22 23:02:00,54.1,52.0,29.90,WNW,291,3.0,10.0,92,0.00,,,0.01,weatherlink.com 1.10,2013-05-23 04:02:00,